Sexton Summit, OR

10:34 AM PST on November 21, 2017 (GMT -0800)
Sexton Summit

Weather History for KSXT - November, 2013

Change the Weather History Date:

Friday, November 8, 2013

  Actual Average Record
Temperature  
Mean Temperature 38 °F -  
Max Temperature 42 °F 46 °F 64 °F (2007)
Min Temperature 34 °F 36 °F 26 °F (2005)
Degree Days  
Heating Degree Days 27    
Moisture  
Dew Point 34 °F    
Average Humidity 91    
Maximum Humidity 100    
Minimum Humidity 55    
Precipitation  
Precipitation 0.00 in - - ()
Sea Level Pressure  
Sea Level Pressure 30.11 in    
Wind  
Wind Speed 7 mph (ESE)    
Max Wind Speed 13 mph    
Max Gust Speed -    
Visibility 6 miles    
Events Fog    
Averages and records for this station are not official NWS values.
T = Trace of Precipitation, MM = Missing Value Source: NWS Daily Summary

Daily Weather History Graph

Daily Weather History Graph

Search for Another Location

Airport or City:

Trip Planner

Search our weather history database for the weather conditions in past years. The results will help you decide how hot, cold, wet, or windy it might be!

Date:

Astronomy

Nov. 08, 2013 Rise Set
Actual Time 6:56 AM PST 4:57 PM PST
Civil Twilight 6:26 AM PST 5:27 PM PST
Nautical Twilight 5:52 AM PST 6:00 PM PST
Astronomical Twilight 5:19 AM PST 6:34 PM PST
Moon 11:56 AM PST (11/8) 10:25 PM PST (11/8)
Length of Visible Light 11h 00m
Length of Day
10h 00m
Waxing Crescent, 34% of the Moon is Illuminated
Nov 8
Waxing Crescent
Nov 9
First Quarter
Nov 17
Full
Nov 25
Last Quarter
Dec 2
New

Hourly Weather History & Observations

Time (PST) Temp. Windchill Dew Point Humidity Pressure Visibility Wind Dir Wind Speed Gust Speed Precip Events Conditions
12:56 AM 34.0 °F 28.0 °F 34.0 °F 100% 30.16 in 10.0 mi North 6.9 mph - N/A   Clear
1:56 AM 34.0 °F 28.8 °F 33.1 °F 96% 30.18 in 10.0 mi North 5.8 mph - N/A   Clear
2:56 AM 35.1 °F 32.2 °F 32.0 °F 89% 30.17 in 10.0 mi South 3.5 mph - N/A   Clear
3:56 AM 34.0 °F 28.8 °F 32.0 °F 92% 30.17 in 10.0 mi SSE 5.8 mph - N/A   Clear
4:56 AM 34.0 °F 28.0 °F 30.9 °F 89% 30.17 in 10.0 mi SE 6.9 mph - N/A   Clear
5:56 AM 34.0 °F 28.8 °F 32.0 °F 92% 30.18 in 10.0 mi ESE 5.8 mph - N/A   Clear
6:56 AM 35.1 °F 32.2 °F 32.0 °F 89% 30.19 in 10.0 mi East 3.5 mph - N/A   Scattered Clouds
7:56 AM 35.1 °F 32.2 °F 32.0 °F 89% 30.20 in 10.0 mi NNE 3.5 mph - N/A   Clear
8:56 AM 37.9 °F - 34.0 °F 86% 30.20 in 10.0 mi Calm Calm - N/A   Clear
9:56 AM 39.9 °F 35.1 °F 35.1 °F 83% 30.17 in 10.0 mi ESE 6.9 mph - N/A   Clear
10:56 AM 41.0 °F 35.8 °F 37.9 °F 89% 30.16 in 10.0 mi ESE 8.1 mph - N/A   Scattered Clouds
11:25 AM 39.9 °F 33.9 °F 36.0 °F 86% 30.11 in 5.0 mi SE 9.2 mph - N/A   Mostly Cloudy
11:33 AM 39.9 °F 33.9 °F 37.0 °F 89% 30.11 in 1.8 mi ESE 9.2 mph - N/A   Mostly Cloudy
11:38 AM 39.9 °F 34.5 °F 37.0 °F 89% 30.11 in 3.0 mi ESE 8.1 mph - N/A   Mostly Cloudy
11:56 AM 39.9 °F 33.9 °F 37.0 °F 89% 30.15 in 10.0 mi SE 9.2 mph - N/A   Mostly Cloudy
12:10 PM 39.9 °F 35.1 °F 37.0 °F 89% 30.10 in 1.2 mi SE 6.9 mph - N/A   Mostly Cloudy
12:17 PM 39.9 °F 37.8 °F 37.0 °F 89% 30.10 in 1.2 mi ESE 3.5 mph - N/A   Mostly Cloudy
12:21 PM 41.0 °F 36.4 °F 37.9 °F 89% 30.10 in 4.0 mi ESE 6.9 mph - N/A   Mostly Cloudy
12:36 PM 42.1 °F 38.4 °F 37.9 °F 85% 30.10 in 10.0 mi Variable 5.8 mph - N/A   Scattered Clouds
12:56 PM 42.1 °F 39.2 °F 37.0 °F 82% 30.13 in 10.0 mi East 4.6 mph - N/A   Clear
1:56 PM 42.1 °F 40.2 °F 36.0 °F 79% 30.12 in 10.0 mi Variable 3.5 mph - N/A   Clear
2:56 PM 39.9 °F 37.8 °F 34.0 °F 79% 30.12 in 10.0 mi North 3.5 mph - N/A   Clear
3:56 PM 42.1 °F - 27.0 °F 55% 30.11 in 10.0 mi Calm Calm - N/A   Clear
4:56 PM 37.0 °F 33.3 °F 33.1 °F 86% 30.11 in 10.0 mi North 4.6 mph - N/A   Clear
5:56 PM 36.0 °F 33.3 °F 34.0 °F 93% 30.12 in 10.0 mi North 3.5 mph - N/A   Clear
6:56 PM 37.9 °F 32.1 °F 34.0 °F 86% 30.10 in 10.0 mi SE 8.1 mph - N/A   Clear
7:56 PM 37.0 °F 31.6 °F 35.1 °F 93% 30.10 in 10.0 mi SE 6.9 mph - N/A   Clear
8:56 PM 37.0 °F 29.8 °F 34.0 °F 89% 30.09 in 10.0 mi SE 10.4 mph - N/A   Clear
9:56 PM 36.0 °F 28.0 °F 34.0 °F 93% 30.08 in 10.0 mi SE 11.5 mph - N/A   Clear
10:21 PM 35.1 °F 26.4 °F 34.0 °F 96% 30.05 in 3.0 mi SE 12.7 mph - N/A   Partly Cloudy
10:37 PM 35.1 °F 27.4 °F 35.1 °F 100% 30.05 in 1.5 mi SE 10.4 mph - N/A   Scattered Clouds
10:42 PM 35.1 °F 27.9 °F 35.1 °F 100% 30.05 in 0.2 mi SE 9.2 mph - N/A Fog Fog
10:56 PM 35.1 °F 27.4 °F 34.0 °F 96% 30.08 in 0.2 mi SE 10.4 mph - N/A Fog Fog
11:03 PM 35.1 °F 27.9 °F 34.0 °F 96% 30.04 in 1.0 mi SE 9.2 mph - N/A   Mist
11:06 PM 35.1 °F 27.9 °F 34.0 °F 96% 30.04 in 2.5 mi ESE 9.2 mph - N/A   Mostly Cloudy
11:10 PM 34.0 °F 26.0 °F 34.0 °F 100% 30.04 in 1.0 mi SE 10.4 mph - N/A   Mist
11:15 PM 34.0 °F 25.0 °F 34.0 °F 100% 30.03 in 0.2 mi SE 12.7 mph - N/A Fog Fog
11:26 PM 35.1 °F 26.9 °F 35.1 °F 100% 30.03 in 1.5 mi SE 11.5 mph - N/A   Partly Cloudy
11:28 PM 35.1 °F 26.9 °F 34.0 °F 96% 30.03 in 4.0 mi SE 11.5 mph - N/A   Partly Cloudy
11:38 PM 35.1 °F 27.4 °F 34.0 °F 96% 30.03 in 1.0 mi SE 10.4 mph - N/A   Mist
11:45 PM 35.1 °F 27.9 °F 34.0 °F 96% 30.03 in 0.5 mi SE 9.2 mph - N/A Fog Fog
11:56 PM 34.0 °F 25.5 °F 34.0 °F 100% 30.07 in 0.5 mi SE 11.5 mph - N/A Fog Fog